Location: Baia Mare
(47.6567°N, 23.5850°E)
Time: 23:35:11
(UTC+03:00)

ISS - Pass Details

Date: 24 May 2018
Orbit: 402 x 408 km, 51.6° (Epoch: 20 September)

Event Time Altitude Azimuth Distance (km) Brightness Sun altitude
Rises 02:12:46 0° 293° (WNW) 2,321 0.2 -20.7°
Reaches altitude 10° 02:14:51 10° 295° (WNW) 1,459 -0.9 -20.6°
Maximum altitude 02:18:07 72° 21° (NNE) 428 -3.7 -20.5°
Enters shadow 02:18:29 62° 72° (ENE) 456 -3.6 -20.5°
